SCP
0 0 0 0 0 0 0 0 0 0 0 0 0 0 0 0 0 0 0 0 0 0 0 0 0 0 0 0 0 0 0 0 0 0 0 0 0 0 0 0 0 0 0
0 0 0 0 0 0 0 0 0 0 0 0 0 0 0 0 0 0 0 0 0 0 0 0 0 0 0 0 0 0 0 0 0 0 0 0 0 0 0 0 0 0 0
0 0 0 0 0 0 0 0 0 0 0 0 0 0 0 0 0 0 0 0 0 0 0 0 0 0 0 0 0 0 0 0 0 0 0 0 0 0 0 0 0 0 0
0 0 0 0 0 0 0 0 0 0 0 0 0 0 0 0 0 0 0 0 0 0 0 0 0 0 0 0 0 0 0 0 0 0 0 0 0 0 0 0 0 0 0
0 0 0 0 0 0 0 0 0 0 0 0 0 0 0 0 0 0 0 0 0 0 0 0 0 0 0 0 0 0 0 0 0 0 0 0 0 0 0 0 0 0 0
0 0 0 0 0 0 0 0 0 0 0 0 0 0 0 0 0 0 0 0 0 0 0 0 0 0 0 0 0 0 0 0 0 0 0 0 0 0 0 0 0 0 0
0 0 0 0 0 0 0 0 0 0 0 0 0 0 0 0 0 0 0 0 0 0 0 0 0 0 0 0 0 0 0 0 0 0 0 0 0 0 0 0 0 0 0
0 0 0 0 0 0 0 0 0 0 0 0 0 0 0 0 0 0 0 0 0 0 0 0 0 0 0 0 0 0 0 0 0 0 0 0 0 0 0 0 0 0 0
0 0 0 0 0 0 0 0 0 0 0 0 0 0 0 0 0 0 0 0 0 0 0 0 0 0 0 0 0 0 0 0 0 0 0 0 0 0 0 0 0 0 0
0 0 0 0 0 0 0 0 0 0 0 0 0 0 0 0 0 0 0 0 0 0 0 0 0 0 0 0 0 0 0 0 0 0 0 0 0 0 0 0 0 0 0
0 0 0 0 0 0 0 0 0 0 0 0 0 0 0 0 0 0 0 0 0 0 0 0 0 0 0 0 0 0 0 0 0 0 0 0 0 0 0 0 0 0 0
0 0 0 0 0 0 0 0 0 0 0 0 0 0 0 0 0 0 0 0 0 0 0 0 0 0 0 0 0 0 0 0 0 0 0 0 0 0 0 0 0 0 0
0 0 0 0 0 0 0 0 0 0 0 0 0 0 0 0 0 0 0 0 0 0 0 0 0 0 0 0 0 0 0 0 0 0 0 0 0 0 0 0 0 0 0
0 0 0 0 0 0 0 0 0 0 0 0 0 0 0 0 0 0 0 0 0 0 0 0 0 0 0 0 0 0 0 0 0 0 0 0 0 0 0 0 0 0 0
0 0 0 0 0 0 0 0 0 0 0 0 0 0 0 0 0 0 0 0 0 0 0 0 0 0 0 0 0 0 0 0 0 0 0 0 0 0 0 0 0 0 0
0 0 0 0 0 0 0 0 0 0 0 0 0 0 0 0 0 0 0 0 0 0 0 0 0 0 0 0 0 0 0 0 0 0 0 0 0 0 0 0 0 0 0
0 0 0 0 0 0 0 0 0 0 0 0 0 0 0 0 0 0 0 0 0 0 0 0 0 0 0 0 0 0 0 0 0 0 0 0 0 0 0 0 0 0 0
0 0 0 0 0 0 0 0 0 0 0 0 0 0 0 0 0 0 0 0 0 0 0 0 0 0 0 0 0 0 0 0 0 0 0 0 0 0 0 0 0 0 0
0 0 0 0 0 0 0 0 0 0 0 0 0 0 0 0 0 0 0 0 0 0 0 0 0 0 0 0 0 0 0 0 0 0 0 0 0 0 0 0 0 0 0
0 0 0 0 0 0 0 0 0 0 0 0 0 0 0 0 0 0 0 0 0 0 0 0 0 0 0 0 0 0 0 0 0 0 0 0 0 0 0 0 0 0 0
0 0 0 0 0 0 0 0 0 0 0 0 0 0 0 0 0 0 0 0 0 0 0 0 0 0 0 0 0 0 0 0 0 0 0 0 0 0 0 0 0 0 0
0 0 0 0 0 0 0 0 0 0 0 0 0 0 0 0 0 0 0 0 0 0 0 0 0 0 0 0 0 0 0 0 0 0 0 0 0 0 0 0 0 0 0
0 0 0 0 0 0 0 0 0 0 0 0 0 0 0 0 0 0 0 0 0 0 0 0 0 0 0 0 0 0 0 0 0 0 0 0 0 0 0 0 0 0 0
0 0 0 0 0 0 0 0 0 0 0 0 0 0 0 0 0 0 0 0 0 0 0 0 0 0 0 0 0 0 0 0 0 0 0 0 0 0 0 0 0 0 0
0 0 0 0 0 0 0 0 0 0 0 0 0 0 0 0 0 0 0 0 0 0 0 0 0 0 0 0 0 0 0 0 0 0 0 0 0 0 0 0 0 0 0
0 0 0 0 0 0 0 0 0 0 0 0 0 0 0 0 0 0 0 0 0 0 0 0 0 0 0 0 0 0 0 0 0 0 0 0 0 0 0 0 0 0 0
Wind_Speed_500mb
52 59 68 64 67 73 75 71 78 81 76 77 76 76 72 65 61 56 49 45 44 43 41 42 38 36 37 40 42 42 39 38 34 33 32 28 27 28 28 26 25 25 24
30 36 45 57 59 72 73 70 75 80 75 75 78 77 75 69 63 60 54 50 47 42 43 43 42 39 38 36 37 40 44 38 36 33 28 17 22 28 28 28 26 24 21
20 23 29 49 57 62 68 71 75 75 72 66 75 78 73 69 67 64 63 55 48 48 48 46 43 42 43 45 46 43 42 41 42 33 21 13 15 25 32 32 30 26 25
21 22 25 31 44 57 67 66 74 70 72 62 63 71 77 74 69 65 61 58 57 54 51 47 48 47 47 50 48 40 39 35 36 35 30 25 15 13 12 34 37 34 32
23 25 27 25 23 36 52 60 64 67 69 61 63 64 69 71 69 65 62 63 62 58 55 56 55 49 52 48 48 49 48 45 41 43 34 37 34 28 23 15 30 38 35
27 24 25 25 24 25 40 52 59 66 70 61 57 61 65 64 63 61 62 59 58 56 57 55 51 58 51 53 49 48 51 51 48 49 42 37 38 39 35 30 26 31 35
36 31 22 23 24 24 29 34 41 51 61 56 52 56 58 54 46 46 49 53 55 58 55 58 55 51 49 50 51 47 49 48 47 41 44 45 37 35 33 36 29 27 36
39 39 33 26 24 23 24 25 28 34 36 35 37 34 30 24 22 23 27 34 41 44 46 45 48 51 53 45 42 43 43 44 45 42 43 41 43 40 34 31 32 29 31
43 41 37 33 27 21 23 26 25 26 30 34 32 26 22 20 18 20 24 26 30 34 40 43 46 44 43 44 46 48 44 35 36 37 38 41 38 36 34 32 32 33 32
43 40 39 36 31 25 18 18 24 26 26 26 25 23 22 21 21 21 23 24 26 31 36 40 43 44 45 44 46 47 55 61 43 35 31 30 30 29 30 31 33 35 35
44 40 38 35 33 28 25 21 19 22 24 25 26 25 25 26 25 26 24 23 26 30 35 39 41 42 43 42 51 43 33 32 33 37 38 33 29 29 27 23 24 27 30
42 38 36 35 35 34 28 26 22 19 20 21 21 22 22 25 29 28 28 27 25 28 31 36 40 41 42 41 40 41 46 46 35 36 41 44 44 43 47 45 37 35 32
45 42 40 41 40 36 32 27 22 18 15 14 16 19 21 22 23 24 25 26 26 27 29 32 37 39 41 42 43 41 36 41 44 39 41 44 39 30 25 24 24 28 30
44 43 43 43 38 37 34 29 24 20 17 11 8 9 12 15 15 17 19 22 24 25 28 31 35 37 38 38 36 33 37 37 32 35 32 33 33 35 29 26 24 24 24
45 42 43 45 40 38 36 34 30 25 23 18 15 12 9 10 11 11 15 18 19 21 22 27 32 33 33 35 32 38 30 32 31 32 28 24 23 24 25 26 27 24 23
42 40 40 43 45 40 39 35 35 32 24 20 21 18 13 12 12 12 14 17 19 21 22 26 29 32 33 33 36 30 25 26 28 29 29 29 29 29 29 28 31 31 27
48 44 42 40 40 41 37 38 32 25 24 25 23 21 19 18 19 18 17 18 21 23 25 27 30 30 27 25 21 18 18 22 23 27 32 33 31 30 31 28 22 20 17
48 48 44 41 36 30 27 26 23 22 21 23 24 22 17 12 9 8 10 14 18 22 24 24 23 21 20 20 19 12 17 11 19 23 24 24 24 22 23 25 29 31 30
45 37 40 38 33 31 28 21 17 17 15 17 18 18 16 13 13 12 11 10 10 14 17 20 20 19 20 22 24 22 14 19 13 18 23 28 25 20 20 20 16 21 23
38 36 32 31 32 32 28 23 21 18 15 15 14 11 8 5 5 4 6 7 8 10 12 14 16 18 19 20 22 24 27 25 23 23 20 23 22 20 21 25 24 23 19
33 26 23 27 29 29 25 23 21 20 18 13 11 7 5 4 3 4 5 7 9 11 14 15 16 17 18 19 22 25 24 26 29 30 26 24 24 20 15 25 29 22 23
36 31 28 25 24 24 22 21 23 21 19 16 12 10 9 9 7 8 10 13 15 17 18 18 17 18 19 19 22 26 20 22 28 30 27 26 26 29 18 24 19 21 28
37 35 32 28 25 23 21 19 20 22 20 18 17 16 15 12 12 13 14 16 21 19 20 19 18 19 18 18 22 30 28 20 23 26 28 27 21 27 27 25 25 31 31
34 36 33 32 31 27 24 22 24 26 26 24 21 19 17 17 15 16 20 21 20 20 19 22 20 21 21 22 24 26 32 31 23 26 26 25 25 29 27 27 32 33 31
38 37 37 36 34 34 31 28 26 26 28 27 25 22 22 21 20 22 22 24 24 21 22 17 16 22 23 20 21 31 31 33 35 26 28 31 32 29 26 29 30 28 28
40 38 37 36 34 35 33 32 32 30 30 30 28 25 24 24 25 27 30 31 27 23 22 18 19 17 22 22 22 20 23 29 33 34 37 36 35 29 27 28 28 27 27
Wind_Direction_500mb
210 216 218 220 217 214 212 209 208 205 207 209 208 205 209 212 211 213 216 212 207 205 200 203 200 197 192 191 188 187 186 182 187 187 182 189 200 207 210 215 221 229 234
182 199 210 209 210 209 209 208 208 209 207 212 212 212 210 210 213 212 215 215 214 210 209 205 201 202 198 199 201 199 190 192 193 195 190 199 218 223 222 225 228 235 240
147 159 176 187 195 207 210 209 209 210 209 210 215 216 213 212 211 215 216 213 211 213 209 209 216 206 209 206 207 209 210 198 190 197 194 188 216 220 232 234 237 238 243
127 126 139 163 183 194 206 210 212 210 211 213 215 223 223 219 218 221 216 211 207 209 211 211 213 211 206 210 204 207 216 207 206 201 213 233 242 204 218 230 234 239 243
100 105 106 114 156 187 195 202 211 213 215 219 216 219 222 225 225 221 217 214 211 209 207 212 213 211 214 211 212 205 205 215 215 210 222 229 236 236 233 230 232 238 239
91 94 98 106 112 159 179 194 206 209 212 216 217 221 224 225 224 221 219 218 217 216 214 213 213 216 215 215 214 220 218 213 216 222 225 226 232 240 235 238 242 236 236
83 83 95 101 104 118 156 173 191 203 208 206 213 219 222 220 223 226 227 225 224 222 220 216 215 214 223 218 218 215 223 229 233 236 237 239 239 243 245 244 245 232 233
78 77 80 88 96 106 120 149 171 186 194 204 206 201 200 205 214 223 230 231 232 232 231 228 222 219 217 221 225 230 232 234 238 241 244 247 251 255 255 252 252 243 235
69 67 70 75 84 104 112 128 149 165 176 181 182 188 196 201 210 217 219 218 221 225 224 225 224 222 222 219 220 227 228 237 243 241 245 250 247 248 249 247 246 247 245
63 60 59 61 68 80 95 125 133 143 157 170 179 189 201 205 210 214 212 214 214 214 216 218 219 217 219 217 227 230 235 235 228 237 237 239 243 243 246 244 243 242 245
49 53 55 57 60 67 78 89 116 133 150 160 170 181 192 201 211 220 224 220 216 213 211 211 212 213 214 218 220 218 225 218 220 236 237 237 241 243 245 243 248 252 251
43 44 48 54 60 61 68 78 89 112 124 134 155 171 189 205 214 219 222 221 212 206 205 206 207 209 214 215 218 213 219 234 230 223 229 236 243 243 248 260 256 246 246
38 39 44 48 51 54 58 65 76 88 109 141 173 192 204 213 216 215 213 209 205 202 201 203 207 208 211 213 216 233 223 232 243 250 250 250 250 244 227 228 235 242 245
40 35 40 41 46 50 51 48 55 65 76 91 130 173 200 207 206 202 197 195 194 195 196 198 201 205 208 208 207 207 231 251 248 242 237 238 240 239 242 237 236 243 241
34 33 31 39 42 48 52 51 49 49 54 66 82 100 130 151 160 172 174 175 177 180 183 188 189 196 199 206 204 241 257 258 241 233 228 225 219 217 229 237 233 235 245
30 30 30 33 41 46 46 47 46 47 51 67 77 85 101 118 134 149 158 155 159 161 165 172 183 189 196 212 238 252 243 229 217 212 211 210 219 223 222 235 250 258 265
26 25 28 27 33 40 45 48 46 48 59 73 78 78 84 97 103 115 124 132 142 151 160 173 185 201 227 232 237 239 237 235 226 229 230 230 234 236 242 237 228 232 235
23 27 27 30 31 34 46 49 50 46 50 65 76 82 83 92 112 115 127 141 156 167 177 191 205 209 205 202 199 209 243 252 236 233 230 231 232 239 245 247 239 234 239
29 35 35 35 34 36 34 41 51 41 33 43 54 62 71 76 81 87 103 132 168 190 186 185 185 192 197 196 188 202 209 232 239 231 231 238 233 233 240 247 238 239 244
24 32 41 32 33 32 29 29 38 34 32 27 29 35 36 33 80 110 129 148 180 191 191 187 184 191 196 199 204 208 220 234 233 233 236 226 225 246 245 225 237 249 255
357 4 21 25 21 15 22 24 24 23 17 4 358 355 340 299 257 243 237 233 238 243 233 219 209 208 208 208 210 206 238 238 237 238 233 222 226 232 218 222 245 243 262
348 349 348 351 352 350 354 9 8 358 351 338 328 318 307 295 296 282 262 254 247 240 240 240 234 230 228 222 221 205 239 244 239 228 226 226 227 220 223 208 228 258 270
340 344 347 344 340 338 336 339 335 331 330 324 318 309 300 303 303 293 283 269 258 250 241 239 236 230 224 218 214 209 211 220 240 227 228 224 217 213 219 239 253 263 272
334 341 340 339 336 335 335 325 318 314 317 313 310 308 300 286 283 279 271 265 265 261 250 238 236 244 235 227 218 213 212 218 221 217 216 218 218 222 233 249 261 266 263
330 334 333 330 327 327 328 325 319 312 311 311 308 302 294 289 276 268 262 253 245 249 251 253 248 245 240 229 219 218 221 222 218 209 207 210 216 229 248 258 259 256 259
323 323 324 323 322 320 321 319 315 311 310 309 306 302 292 278 275 268 255 248 245 235 236 253 275 266 248 229 223 225 230 229 224 218 211 214 233 239 251 261 256 252 259
Wind_Speed_850mb
52 59 68 64 67 73 75 71 78 81 76 77 76 76 72 65 61 56 49 45 44 43 41 42 38 36 37 40 42 42 39 38 34 33 32 28 27 28 28 26 25 25 24
30 36 45 57 59 72 73 70 75 80 75 75 78 77 75 69 63 60 54 50 47 42 43 43 42 39 38 36 37 40 44 38 36 33 28 17 22 28 28 28 26 24 21
20 23 29 49 57 62 68 71 75 75 72 66 75 78 73 69 67 64 63 55 48 48 48 46 43 42 43 45 46 43 42 41 42 33 21 13 15 25 32 32 30 26 25
21 22 25 31 44 57 67 66 74 70 72 62 63 71 77 74 69 65 61 58 57 54 51 47 48 47 47 50 48 40 39 35 36 35 30 25 15 13 12 34 37 34 32
23 25 27 25 23 36 52 60 64 67 69 61 63 64 69 71 69 65 62 63 62 58 55 56 55 49 52 48 48 49 48 45 41 43 34 37 34 28 23 15 30 38 35
27 24 25 25 24 25 40 52 59 66 70 61 57 61 65 64 63 61 62 59 58 56 57 55 51 58 51 53 49 48 51 51 48 49 42 37 38 39 35 30 26 31 35
36 31 22 23 24 24 29 34 41 51 61 56 52 56 58 54 46 46 49 53 55 58 55 58 55 51 49 50 51 47 49 48 47 41 44 45 37 35 33 36 29 27 36
39 39 33 26 24 23 24 25 28 34 36 35 37 34 30 24 22 23 27 34 41 44 46 45 48 51 53 45 42 43 43 44 45 42 43 41 43 40 34 31 32 29 31
43 41 37 33 27 21 23 26 25 26 30 34 32 26 22 20 18 20 24 26 30 34 40 43 46 44 43 44 46 48 44 35 36 37 38 41 38 36 34 32 32 33 32
43 40 39 36 31 25 18 18 24 26 26 26 25 23 22 21 21 21 23 24 26 31 36 40 43 44 45 44 46 47 55 61 43 35 31 30 30 29 30 31 33 35 35
44 40 38 35 33 28 25 21 19 22 24 25 26 25 25 26 25 26 24 23 26 30 35 39 41 42 43 42 51 43 33 32 33 37 38 33 29 29 27 23 24 27 30
42 38 36 35 35 34 28 26 22 19 20 21 21 22 22 25 29 28 28 27 25 28 31 36 40 41 42 41 40 41 46 46 35 36 41 44 44 43 47 45 37 35 32
45 42 40 41 40 36 32 27 22 18 15 14 16 19 21 22 23 24 25 26 26 27 29 32 37 39 41 42 43 41 36 41 44 39 41 44 39 30 25 24 24 28 30
44 43 43 43 38 37 34 29 24 20 17 11 8 9 12 15 15 17 19 22 24 25 28 31 35 37 38 38 36 33 37 37 32 35 32 33 33 35 29 26 24 24 24
45 42 43 45 40 38 36 34 30 25 23 18 15 12 9 10 11 11 15 18 19 21 22 27 32 33 33 35 32 38 30 32 31 32 28 24 23 24 25 26 27 24 23
42 40 40 43 45 40 39 35 35 32 24 20 21 18 13 12 12 12 14 17 19 21 22 26 29 32 33 33 36 30 25 26 28 29 29 29 29 29 29 28 31 31 27
48 44 42 40 40 41 37 38 32 25 24 25 23 21 19 18 19 18 17 18 21 23 25 27 30 30 27 25 21 18 18 22 23 27 32 33 31 30 31 28 22 20 17
48 48 44 41 36 30 27 26 23 22 21 23 24 22 17 12 9 8 10 14 18 22 24 24 23 21 20 20 19 12 17 11 19 23 24 24 24 22 23 25 29 31 30
45 37 40 38 33 31 28 21 17 17 15 17 18 18 16 13 13 12 11 10 10 14 17 20 20 19 20 22 24 22 14 19 13 18 23 28 25 20 20 20 16 21 23
38 36 32 31 32 32 28 23 21 18 15 15 14 11 8 5 5 4 6 7 8 10 12 14 16 18 19 20 22 24 27 25 23 23 20 23 22 20 21 25 24 23 19
33 26 23 27 29 29 25 23 21 20 18 13 11 7 5 4 3 4 5 7 9 11 14 15 16 17 18 19 22 25 24 26 29 30 26 24 24 20 15 25 29 22 23
36 31 28 25 24 24 22 21 23 21 19 16 12 10 9 9 7 8 10 13 15 17 18 18 17 18 19 19 22 26 20 22 28 30 27 26 26 29 18 24 19 21 28
37 35 32 28 25 23 21 19 20 22 20 18 17 16 15 12 12 13 14 16 21 19 20 19 18 19 18 18 22 30 28 20 23 26 28 27 21 27 27 25 25 31 31
34 36 33 32 31 27 24 22 24 26 26 24 21 19 17 17 15 16 20 21 20 20 19 22 20 21 21 22 24 26 32 31 23 26 26 25 25 29 27 27 32 33 31
38 37 37 36 34 34 31 28 26 26 28 27 25 22 22 21 20 22 22 24 24 21 22 17 16 22 23 20 21 31 31 33 35 26 28 31 32 29 26 29 30 28 28
40 38 37 36 34 35 33 32 32 30 30 30 28 25 24 24 25 27 30 31 27 23 22 18 19 17 22 22 22 20 23 29 33 34 37 36 35 29 27 28 28 27 27
Wind_Direction_850mb
210 216 218 220 217 214 212 209 208 205 207 209 208 205 209 212 211 213 216 212 207 205 200 203 200 197 192 191 188 187 186 182 187 187 182 189 200 207 210 215 221 229 234
182 199 210 209 210 209 209 208 208 209 207 212 212 212 210 210 213 212 215 215 214 210 209 205 201 202 198 199 201 199 190 192 193 195 190 199 218 223 222 225 228 235 240
147 159 176 187 195 207 210 209 209 210 209 210 215 216 213 212 211 215 216 213 211 213 209 209 216 206 209 206 207 209 210 198 190 197 194 188 216 220 232 234 237 238 243
127 126 139 163 183 194 206 210 212 210 211 213 215 223 223 219 218 221 216 211 207 209 211 211 213 211 206 210 204 207 216 207 206 201 213 233 242 204 218 230 234 239 243
100 105 106 114 156 187 195 202 211 213 215 219 216 219 222 225 225 221 217 214 211 209 207 212 213 211 214 211 212 205 205 215 215 210 222 229 236 236 233 230 232 238 239
91 94 98 106 112 159 179 194 206 209 212 216 217 221 224 225 224 221 219 218 217 216 214 213 213 216 215 215 214 220 218 213 216 222 225 226 232 240 235 238 242 236 236
83 83 95 101 104 118 156 173 191 203 208 206 213 219 222 220 223 226 227 225 224 222 220 216 215 214 223 218 218 215 223 229 233 236 237 239 239 243 245 244 245 232 233
78 77 80 88 96 106 120 149 171 186 194 204 206 201 200 205 214 223 230 231 232 232 231 228 222 219 217 221 225 230 232 234 238 241 244 247 251 255 255 252 252 243 235
69 67 70 75 84 104 112 128 149 165 176 181 182 188 196 201 210 217 219 218 221 225 224 225 224 222 222 219 220 227 228 237 243 241 245 250 247 248 249 247 246 247 245
63 60 59 61 68 80 95 125 133 143 157 170 179 189 201 205 210 214 212 214 214 214 216 218 219 217 219 217 227 230 235 235 228 237 237 239 243 243 246 244 243 242 245
49 53 55 57 60 67 78 89 116 133 150 160 170 181 192 201 211 220 224 220 216 213 211 211 212 213 214 218 220 218 225 218 220 236 237 237 241 243 245 243 248 252 251
43 44 48 54 60 61 68 78 89 112 124 134 155 171 189 205 214 219 222 221 212 206 205 206 207 209 214 215 218 213 219 234 230 223 229 236 243 243 248 260 256 246 246
38 39 44 48 51 54 58 65 76 88 109 141 173 192 204 213 216 215 213 209 205 202 201 203 207 208 211 213 216 233 223 232 243 250 250 250 250 244 227 228 235 242 245
40 35 40 41 46 50 51 48 55 65 76 91 130 173 200 207 206 202 197 195 194 195 196 198 201 205 208 208 207 207 231 251 248 242 237 238 240 239 242 237 236 243 241
34 33 31 39 42 48 52 51 49 49 54 66 82 100 130 151 160 172 174 175 177 180 183 188 189 196 199 206 204 241 257 258 241 233 228 225 219 217 229 237 233 235 245
30 30 30 33 41 46 46 47 46 47 51 67 77 85 101 118 134 149 158 155 159 161 165 172 183 189 196 212 238 252 243 229 217 212 211 210 219 223 222 235 250 258 265
26 25 28 27 33 40 45 48 46 48 59 73 78 78 84 97 103 115 124 132 142 151 160 173 185 201 227 232 237 239 237 235 226 229 230 230 234 236 242 237 228 232 235
23 27 27 30 31 34 46 49 50 46 50 65 76 82 83 92 112 115 127 141 156 167 177 191 205 209 205 202 199 209 243 252 236 233 230 231 232 239 245 247 239 234 239
29 35 35 35 34 36 34 41 51 41 33 43 54 62 71 76 81 87 103 132 168 190 186 185 185 192 197 196 188 202 209 232 239 231 231 238 233 233 240 247 238 239 244
24 32 41 32 33 32 29 29 38 34 32 27 29 35 36 33 80 110 129 148 180 191 191 187 184 191 196 199 204 208 220 234 233 233 236 226 225 246 245 225 237 249 255
357 4 21 25 21 15 22 24 24 23 17 4 358 355 340 299 257 243 237 233 238 243 233 219 209 208 208 208 210 206 238 238 237 238 233 222 226 232 218 222 245 243 262
348 349 348 351 352 350 354 9 8 358 351 338 328 318 307 295 296 282 262 254 247 240 240 240 234 230 228 222 221 205 239 244 239 228 226 226 227 220 223 208 228 258 270
340 344 347 344 340 338 336 339 335 331 330 324 318 309 300 303 303 293 283 269 258 250 241 239 236 230 224 218 214 209 211 220 240 227 228 224 217 213 219 239 253 263 272
334 341 340 339 336 335 335 325 318 314 317 313 310 308 300 286 283 279 271 265 265 261 250 238 236 244 235 227 218 213 212 218 221 217 216 218 218 222 233 249 261 266 263
330 334 333 330 327 327 328 325 319 312 311 311 308 302 294 289 276 268 262 253 245 249 251 253 248 245 240 229 219 218 221 222 218 209 207 210 216 229 248 258 259 256 259
323 323 324 323 322 320 321 319 315 311 310 309 306 302 292 278 275 268 255 248 245 235 236 253 275 266 248 229 223 225 230 229 224 218 211 214 233 239 251 261 256 252 259